Regional Weather Roundup
Issued by NWS State College, PA

Home | Current Version | Previous Version | Graphics & Text | Print | Product List | Glossary On
Versions: 1 2 3 4 5 6 7 8 9 10 11 12 13 14 15 16 17 18 19 20 21 22 23 24 25 26 27 28 29 30 31 32 33 34 35 36 37 38 39 40 41 42 43 44 45 46 47 48 49 50
000
ASUS41 KCTP 210910
RWRCTP

REGIONAL WEATHER ROUNDUP
NATIONAL WEATHER SERVICE STATE COLLEGE PA
400 AM EST SAT JAN 21 2017

Note: "fair" indicates few or no clouds below 12,000 feet with no
significant weather and/or obstructions to visibility.

* = STATION THAT DOES NOT REPORT PRECIPITATION /E.G. RAIN...SNOW...ETC/
    THUNDER OR FOG.

PAZ002>004-007>009-013>016-020>023-029>032-211000-
WESTERN PENNSYLVANIA

CITY           SKY/WX    TMP DP  RH WIND       PRES   REMARKS
ERIE           FOG       44  43  96 CALM      29.80F VSB 1
MEADVILLE      CLOUDY    47  45  93 S3        29.79F FOG
FRANKLIN*        N/A     41  39  93 SW5       29.83R VSB 1/4
NEW CASTLE     FOG       37  37 100 CALM      29.81F VSB 1/4
BEAVER COUNTY  NOT AVBL
BUTLER*        CLOUDY    41  39  93 CALM      29.85S VSB 1/2
PITTSBURGH INT MOCLDY    43  43 100 CALM      29.81F FOG
PITTSBURGH     FOG       47  45  93 S7        29.82F VSB 1/4
INDIANA*       FOG       39  39 100 E3        29.86S VSB 0
LATROBE        FOG       37  37 100 CALM      29.84F VSB 1/4
WASHINGTON CO* CLOUDY    37  36  93 CALM      29.83S VSB 1/4
$$

PAZ004>006-010>012-017>019-024>028-033>037-041-042-045-046-049>053-211000-
CENTRAL PENNSYLVANIA

CITY           SKY/WX    TMP DP  RH WIND       PRES   REMARKS
BRADFORD       CLOUDY    47  47 100 SW3       29.82S
DUBOIS         FOG       37  35  92 E5        29.81F VSB 1/4
CLEARFIELD     FOG       38  38 100 CALM      29.86S VSB 1/4
JOHNSTOWN      PTCLDY    48  47  96 S5        29.83F
ALTOONA        FOG       35  35 100 CALM      29.87S VSB 1/4
STATE COLLEGE  FOG       38  38 100 CALM      29.88S VSB 1/4
WILLIAMSPORT   FOG       39  38  96 CALM      29.89F VSB 1/4
SELINSGROVE    FOG       38  38 100 CALM      29.91S VSB 1/4
FT INDIANTOWN  FOG       38  38 100 CALM      29.91F VSB 1/2
CAPITAL CITY   FOG       40  38  93 CALM      29.91F VSB 1/4
HARRISBURG     FOG       39  39 100 CALM      29.91F VSB 1/2
YORK           FOG       41  41 100 CALM      29.90F VSB 1/4
$$

PAZ038>040-043-044-047-048-054-055-060>062-067>071-211000-
EASTERN PENNSYLVANIA

CITY           SKY/WX    TMP DP  RH WIND       PRES   REMARKS
SCRANTON       FOG       39  39 100 CALM      29.87F VSB 1
MOUNT POCONO   FOG       35  35 100 W7        29.84F VSB 1/2
ALLENTOWN      FOG       39  37  92 CALM      29.91S VSB 1/2
QUAKERTOWN*    CLOUDY    39  39 100 CALM      29.91F VSB 1/2
READING        FOG       39  39 100 CALM      29.91F VSB 1/2
LANCASTER      FOG       42  42 100 CALM      29.91S VSB 1/4
COATESVILLE    FOG       41  41 100 CALM      29.91F VSB<1/4
POTTSTOWN      FOG       39  39 100 CALM      29.93S VSB 1/4
BLUE BELL      CLOUDY    41  41 100 CALM      29.91S
DOYLESTOWN     FOG       41  41 100 CALM      29.90F VSB 3/4
WILLOW GROVE   NOT AVBL
NORTH PHILA    CLOUDY    43  42  97 CALM      29.94S FOG
PHILADELPHIA   CLOUDY    43  41  93 CALM      29.93S FOG
$$



USA.gov is the U.S. government's official web portal to all federal, state and local government web resources and services.